Location: Pinon Hills
(34.4429°N, 117.6403°W)
Time: 16:36:49
(UTC-08:00)

XW-2F - Pass Details

Date: 22 October 2019
Orbit: 502 x 524 km, 97.5° (Epoch: 13 November)

Event Time Altitude Azimuth Distance (km) Brightness Sun altitude
Rises 18:50:03 0° 192° (SSW) 2,617 ? -9.4°
Reaches altitude 10° 18:52:24 10° 206° (SSW) 1,731 ? -9.9°
Maximum altitude 18:55:33 25° 263° (W) 1,048 ? -10.5°
Drops below altitude 10° 18:58:41 10° 321° (NW) 1,731 ? -11.2°
Sets 19:01:02 0° 334° (NNW) 2,617 ? -11.7°
